Regional Weather Roundup
Issued by NWS Huntsville, AL

Home | Current Version | Previous Version | Text Only | Print | Product List | Glossary On
Versions: 1 2 3 4 5 6 7 8 9 10 11 12 13 14 15 16 17 18 19 20 21 22 23 24 25 26 27 28 29 30 31 32 33 34 35 36 37 38 39 40 41 42 43 44 45 46 47 48 49 50
000
ASUS44 KHUN 252210
RWRHUN

WEATHER ROUNDUP FOR THE TENNESSEE VALLEY
NATIONAL WEATHER SERVICE HUNTSVILLE AL
400 PM CST TUE NOV 25 2014

ALZ001>004-252300-
NORTHWEST ALABAMA

CITY           SKY/WX    TMP DP  RH WIND       PRES   REMARKS
COURTLAND HCN    N/A     50 N/A N/A NW8         N/A
RUSSELLVILLE     N/A     48 N/A N/A MISG        N/A
SHOALS AIRPORT   N/A     49  29  46 NW8       30.12S
$$

ALZ005>007-016-252300-
NORTH CENTRAL ALABAMA

CITY           SKY/WX    TMP DP  RH WIND       PRES   REMARKS
CULLMAN AG STN   N/A     52 N/A N/A NW6         N/A
DECATUR AP     CLOUDY    50  29  44 W7        30.11R
HUNTSVILLE AP  CLOUDY    52  29  41 W6        30.09R
HUN NWS/UAH      N/A     52  25  34 NW7         N/A
MERIDIANVILLE  CLOUDY    50  28  43 NW7       30.08R
REDSTONE ARSN  CLOUDY    52  29  41 NW10      30.08R
VINEMONT AP    FAIR      49  30  46 NW5       30.10R
$$

ALZ008>010-252300-
NORTHEAST ALABAMA

CITY           SKY/WX    TMP DP  RH WIND       PRES   REMARKS
ALBERTVILLE    PTCLDY    52  36  54 NW7       30.05R
FORT PAYNE     PTCLDY    54  27  35 NW6       30.04S
SCOTTSBORO AP  PTCLDY    54  27  35 NW7       30.05F
VALLEY HEAD      N/A     54 N/A N/A MISG        N/A
$$

TNZ076-096-097-252300-
SOUTHEASTERN MIDDLE TENNESSEE

CITY           SKY/WX    TMP DP  RH WIND       PRES   REMARKS
TULLAHOMA      CLEAR     46  28  49 NW5       30.09R
WINCHESTER     CLEAR     48  30  49 N6        30.08S
$$

...SURROUNDING SITES...

CITY           SKY/WX    TMP DP  RH WIND       PRES   REMARKS
ATLANTA        MOCLDY    59  27  29 NW9       30.00R
ANNISTON       PTCLDY    58  28  32 NW8       30.04S
BIRMINGHAM     MOCLDY    56  27  32 N8        30.07S
CHATTANOOGA    MOCLDY    57  29  34 N6        30.04F
CORINTH        FAIR      48  28  46 NW5       30.13S
DALTON         PTCLDY    55  32  41 N6        30.03S
GADSDEN        CLEAR     55  27  33 NW7       30.06R
GOLDEN TRNGL   MOCLDY    48  30  49 NW7       30.12F
HALEYVILLE     FAIR      46  28  49 CALM      30.12S
JACKSON TN     CLOUDY    45  25  45 NW7       30.14F
LEWISBURG      FAIR      48  29  48 CALM      30.10S
MEMPHIS        MOCLDY    46  26  45 NW8       30.16S
MURFREESBORO   FAIR      48  27  44 N6        30.10F
NASHVILLE      CLOUDY    48  25  40 NW6       30.12S
OXFORD MS      FAIR      45  23  42 NW8       30.16F
ROME           PTCLDY    58  32  37 N6        30.01F
SAVANNAH       CLEAR     46  27  46 NW5       30.13F
TUPELO         CLOUDY    48  27  44 NW5       30.14S
TUSCALOOSA     MOCLDY    54  28  36 NW10      30.08F
$$

...GULF COAST WEATHER...

CITY           SKY/WX    TMP DP  RH WIND       PRES   REMARKS
GULFPORT       CLOUDY    55  34  45 NW10      30.14R
PASCAGOULA     CLOUDY    56  34  43 NW7       30.11S
MOBILE         CLOUDY    54  35  48 NW8       30.09R
GULF SHORES    CLOUDY    57  38  49 NW5       30.06R
PENSACOLA      CLOUDY    54  43  66 CALM      30.05R
DESTIN         CLOUDY    52  47  83 N9        30.03S
PANAMA CITY    DRIZZLE   51  50  97 NE9       30.00S
APPALACHICOLA  CLOUDY    58  54  86 N13       29.98R
$$




USA.gov is the U.S. government's official web portal to all federal, state and local government web resources and services.